Wind_Speed
2 4 6 6 6 7 9 10 10 12 13 14 15 16 16 18 19 19 18 18 19 19 19 19 19 20 20 21 21 22 23 23 23 25 25 26 27 27 28 27 28 28 29 29
2 3 4 6 7 8 9 9 10 11 13 14 16 17 17 18 18 18 19 19 20 21 19 19 21 21 21 22 22 23 23 24 24 25 26 26 28 28 28 27 28 29 29 29
2 4 6 7 8 8 9 10 11 12 13 15 16 16 17 17 17 18 19 19 19 20 19 19 19 20 21 22 23 23 24 25 25 26 27 27 27 27 28 28 28 29 30 30
3 4 6 8 9 10 10 11 12 13 13 14 15 15 15 16 16 17 17 17 18 18 19 19 19 19 21 22 23 24 24 25 24 25 26 27 27 27 28 28 28 29 29 28
4 5 7 8 9 11 11 12 12 12 12 13 14 17 15 16 16 16 17 17 18 18 19 20 20 21 22 23 24 25 25 25 25 25 26 28 28 28 27 27 28 28 27 27
7 7 8 8 8 9 9 10 11 11 12 12 14 15 15 15 16 17 17 17 18 19 20 21 21 22 22 23 24 24 25 25 26 26 26 27 28 27 27 27 27 27 27 27
9 9 8 9 10 9 10 11 12 13 13 14 15 15 15 15 16 16 16 16 16 17 18 20 21 21 22 23 23 24 25 25 25 24 25 26 26 26 26 26 27 27 26 26
10 10 11 11 12 12 12 13 15 17 17 17 17 16 15 15 16 16 16 15 15 15 17 19 19 19 20 21 22 23 24 23 23 23 24 25 25 25 25 26 26 26 25 25
11 11 11 12 13 14 14 14 16 18 20 20 19 16 15 16 15 15 15 16 16 16 17 18 18 19 20 21 22 22 22 21 22 22 22 23 23 23 24 24 25 25 24 23
14 13 13 13 14 15 16 17 18 19 21 21 19 17 17 17 15 15 16 16 17 17 18 19 18 19 19 19 19 19 18 20 21 21 21 22 22 22 23 23 24 23 23 22
17 17 15 15 16 17 17 18 19 20 21 22 21 19 19 19 18 17 18 18 18 18 17 17 17 18 18 18 17 16 17 19 20 20 21 20 20 20 21 21 22 22 22 22
19 19 18 18 19 19 19 19 20 21 22 23 23 21 19 20 20 19 19 19 19 18 18 18 17 17 17 17 17 17 17 18 19 19 20 19 18 19 20 21 21 21 21 21
21 21 21 19 20 20 21 21 23 23 23 24 25 24 22 21 20 20 20 20 19 19 18 17 16 17 17 17 17 17 18 19 19 19 19 19 18 18 19 20 21 21 20 19
23 23 22 22 21 22 22 23 23 24 25 25 25 24 22 21 21 21 21 20 20 19 19 18 17 17 17 17 17 18 18 18 18 18 19 18 18 18 19 20 20 20 19 18
24 24 23 23 23 24 24 24 25 25 26 26 24 24 23 23 22 21 21 21 21 20 19 18 18 18 18 18 18 18 18 17 18 18 18 18 18 18 18 19 19 19 18 17
25 25 25 24 24 26 26 26 26 26 26 26 26 25 24 24 23 22 21 21 20 20 18 18 18 17 17 18 18 17 17 17 17 18 17 17 18 18 19 18 18 18 17 16
25 25 25 25 24 26 25 25 25 25 25 25 25 25 24 23 21 20 20 19 19 19 18 18 18 18 19 18 18 18 17 17 17 17 17 17 18 18 18 18 18 17 16 16
24 25 25 25 24 24 24 24 24 25 25 25 24 24 23 22 21 19 18 18 18 18 18 17 17 17 16 16 17 17 17 16 16 16 16 16 17 17 18 18 17 16 16 16
24 25 25 24 24 23 23 23 23 24 25 24 23 23 22 21 20 19 19 18 18 17 16 16 16 16 16 16 16 16 16 15 15 14 14 15 16 16 17 16 16 16 16 16
23 24 24 23 23 23 23 24 22 22 22 22 22 22 22 21 19 18 18 17 17 16 16 15 15 15 15 15 14 14 14 13 13 13 14 14 15 15 16 16 15 15 15 15
23 23 22 22 22 23 24 23 21 21 21 21 21 22 21 20 19 18 18 17 16 16 15 15 14 15 15 13 12 12 13 13 13 13 13 14 14 14 14 14 14 15 15 14
23 23 22 23 23 23 23 22 22 22 21 21 21 21 20 19 18 17 16 16 15 14 14 13 13 13 13 12 11 11 12 12 12 11 11 11 11 12 13 13 13 14 14 14
23 23 23 23 22 22 23 22 21 21 21 21 21 20 19 18 17 16 15 15 14 13 13 12 11 11 11 11 10 10 11 11 10 10 10 10 10 12 12 12 13 14 14 14
23 23 23 22 21 21 21 20 19 20 20 20 20 19 18 18 16 15 15 14 13 13 12 11 10 11 11 11 10 11 11 10 9 8 8 9 10 11 11 11 12 13 14 14
22 22 22 21 20 20 18 19 19 18 19 19 20 18 17 17 16 15 14 14 12 12 12 11 10 10 10 9 9 9 9 8 7 7 7 8 9 10 10 11 12 12 13 14
21 22 21 20 19 19 19 19 19 19 18 18 18 17 17 17 16 16 15 14 12 11 11 11 9 9 8 7 7 7 6 6 5 6 6 7 8 9 10 10 11 13 14 14
Wind_Direction
183 205 216 218 222 231 240 244 248 249 254 258 262 263 266 268 272 274 273 275 274 279 282 283 283 285 287 288 288 290 289 290 290 290 291 290 289 291 293 293 293 295 295 293
184 206 221 230 235 242 250 251 255 256 263 268 271 273 274 272 273 276 277 278 278 280 281 284 284 285 286 288 289 288 289 291 291 292 292 290 290 290 292 294 294 295 295 293
253 232 234 239 249 251 257 259 263 268 271 274 277 276 277 276 275 276 278 280 281 284 285 286 288 288 286 287 289 292 291 291 292 293 292 290 290 290 292 294 294 296 296 295
261 246 242 246 255 260 262 266 268 276 276 277 279 277 276 279 279 279 279 280 282 283 284 288 291 291 290 290 291 292 293 294 295 295 294 292 292 293 293 294 295 295 295 295
265 267 263 258 263 268 270 273 275 280 282 283 284 284 282 282 284 284 283 281 280 280 283 287 290 292 291 292 292 293 292 294 294 295 294 295 294 293 294 296 296 296 295 296
275 275 278 278 281 282 282 278 279 282 285 289 292 292 289 287 287 286 283 278 277 281 286 289 291 292 291 294 294 294 294 294 293 295 296 297 295 293 295 297 296 296 296 296
278 277 282 286 287 289 292 288 284 285 289 293 298 298 296 292 290 288 286 282 279 282 289 291 292 294 294 298 298 297 300 297 297 297 297 297 294 294 296 296 298 297 296 295
287 280 280 284 285 287 288 288 290 292 295 298 302 302 303 299 295 291 289 288 287 290 291 293 294 296 299 300 299 300 302 300 301 299 298 296 295 296 297 298 299 298 296 296
285 282 281 284 286 288 289 288 289 292 295 299 303 306 306 304 300 295 292 291 291 293 293 293 296 299 301 302 301 301 301 302 304 303 302 301 300 301 302 302 302 300 298 297
288 285 283 283 283 285 288 290 290 291 295 299 302 306 307 307 304 301 298 294 293 293 293 293 295 298 301 304 305 305 304 304 304 304 306 305 304 305 306 307 305 302 301 302
282 282 283 283 282 285 283 283 286 289 292 296 299 302 303 305 307 306 303 301 294 293 293 294 296 299 303 306 308 307 306 307 306 307 309 308 308 310 311 312 312 309 307 305
282 282 283 283 283 284 286 285 286 287 288 291 295 300 299 299 300 300 300 301 300 299 296 293 296 299 303 305 307 307 307 309 310 312 315 314 314 314 316 318 319 316 311 307
282 283 284 283 283 285 287 286 286 286 287 288 290 295 296 296 296 295 295 297 295 296 295 292 295 299 302 304 305 305 306 309 310 312 314 316 316 316 319 322 324 322 319 314
282 282 283 285 285 284 284 284 284 285 286 287 288 291 292 290 292 293 293 292 294 292 293 292 294 299 301 303 303 304 305 306 309 310 312 315 315 315 320 324 324 325 324 319
284 281 282 283 283 283 283 283 283 283 284 285 287 289 290 289 291 291 291 292 291 290 290 292 294 298 299 301 302 303 304 305 309 310 313 315 318 320 322 325 325 325 324 320
286 285 283 282 282 282 282 283 284 283 284 282 283 285 286 287 289 289 288 289 289 288 289 292 292 296 300 301 301 303 304 304 307 309 314 318 321 324 324 324 323 325 327 326
289 287 286 285 285 284 281 283 283 282 283 282 282 283 283 286 288 288 287 287 288 287 289 290 292 295 299 299 299 301 304 305 308 309 314 318 322 324 325 323 324 326 327 328
290 289 290 290 289 289 290 288 285 283 282 283 281 280 281 282 285 286 287 286 286 288 290 291 292 297 300 299 298 300 301 303 306 309 312 316 319 322 323 324 325 324 324 323
289 290 290 290 291 292 291 291 290 286 284 283 280 277 277 280 281 281 283 284 286 288 291 293 292 293 297 300 299 299 298 299 304 308 311 315 319 322 324 324 326 326 325 324
288 288 288 290 293 294 294 294 293 289 286 283 280 277 276 277 276 276 276 279 285 288 290 289 289 291 295 298 298 299 298 299 304 309 311 315 319 322 326 328 330 330 330 329
288 286 284 286 289 292 294 294 291 286 284 284 281 279 278 277 277 277 275 278 283 286 287 286 286 289 292 295 299 299 296 296 300 307 311 314 319 323 327 330 332 333 334 334
290 288 285 284 285 289 290 289 286 285 283 282 282 279 277 275 275 275 276 277 281 284 283 283 287 290 291 293 297 301 298 296 301 309 313 316 321 326 329 332 335 338 338 338
288 288 286 283 285 288 287 285 284 284 283 282 280 277 275 274 274 276 277 279 277 278 277 277 284 286 284 287 290 299 301 297 298 307 315 319 324 326 328 332 337 342 343 344
286 284 283 281 284 285 285 282 283 283 282 281 279 278 277 274 272 273 273 277 275 270 272 273 279 283 283 284 287 293 300 293 295 304 313 322 325 327 329 333 337 341 343 343
285 284 282 281 284 284 283 282 284 283 283 280 279 279 276 273 271 269 268 271 274 268 266 269 272 275 281 283 291 295 296 293 298 305 315 323 329 333 335 337 341 345 346 347
282 280 283 283 284 283 283 280 280 280 281 278 278 276 272 273 273 268 267 269 271 268 264 269 269 271 275 282 297 303 304 301 311 318 324 331 335 337 339 339 343 346 347 348
Height
5837 5838 5838 5839 5840 5841 5841 5842 5843 5844 5844 5845 5846 5847 5847 5847 5847 5847 5847 5847 5846 5846 5844 5843 5842 5841 5840 5838 5837 5835 5834 5833 5831 5829 5827 5825 5824 5822 5819 5817 5815 5812 5809 5807
5838 5838 5838 5838 5839 5840 5840 5841 5842 5843 5843 5843 5843 5844 5844 5844 5844 5843 5843 5842 5841 5841 5840 5839 5838 5837 5835 5834 5832 5830 5829 5827 5826 5824 5822 5820 5818 5816 5813 5810 5808 5805 5803 5800
5837 5838 5838 5838 5839 5839 5840 5840 5841 5841 5841 5841 5841 5841 5841 5841 5840 5840 5839 5838 5837 5836 5835 5835 5834 5832 5831 5829 5828 5826 5824 5822 5820 5818 5816 5813 5811 5809 5807 5804 5801 5799 5796 5793
5837 5837 5837 5838 5838 5838 5839 5839 5839 5838 5838 5838 5838 5838 5838 5837 5837 5836 5835 5834 5833 5832 5831 5830 5829 5828 5826 5824 5822 5820 5818 5816 5814 5812 5810 5807 5805 5803 5800 5798 5795 5792 5789 5786
5836 5836 5836 5837 5837 5837 5837 5837 5837 5836 5835 5836 5836 5835 5836 5834 5833 5832 5831 5830 5830 5829 5827 5826 5825 5823 5821 5818 5817 5815 5812 5810 5808 5806 5804 5801 5798 5796 5794 5791 5788 5785 5782 5779
5836 5835 5835 5836 5836 5835 5835 5835 5835 5834 5834 5834 5833 5832 5832 5830 5829 5828 5827 5826 5826 5825 5823 5821 5820 5818 5816 5813 5811 5809 5807 5805 5802 5800 5797 5794 5792 5789 5787 5784 5781 5778 5775 5772
5835 5835 5834 5834 5834 5834 5834 5834 5833 5832 5832 5832 5830 5829 5829 5827 5826 5825 5824 5822 5821 5820 5819 5817 5815 5813 5811 5809 5806 5804 5801 5799 5796 5793 5791 5788 5785 5782 5780 5777 5774 5771 5768 5765
5833 5833 5833 5832 5832 5832 5832 5832 5831 5830 5829 5828 5827 5825 5826 5824 5822 5821 5820 5819 5818 5816 5815 5813 5811 5808 5806 5804 5801 5798 5796 5793 5790 5788 5785 5782 5779 5776 5773 5771 5767 5764 5761 5758
5830 5830 5831 5830 5829 5829 5828 5828 5828 5827 5825 5824 5823 5823 5822 5820 5818 5817 5816 5815 5813 5812 5810 5809 5806 5804 5802 5799 5796 5793 5791 5788 5785 5782 5780 5777 5774 5771 5767 5764 5761 5758 5755 5752
5827 5827 5827 5827 5827 5827 5826 5825 5824 5823 5821 5820 5820 5819 5819 5816 5815 5813 5812 5811 5809 5808 5806 5804 5802 5800 5797 5794 5791 5788 5786 5784 5780 5778 5774 5772 5769 5766 5762 5759 5756 5752 5748 5745
5824 5823 5824 5823 5823 5822 5822 5822 5820 5819 5818 5816 5815 5817 5815 5812 5811 5810 5808 5806 5804 5803 5801 5799 5797 5795 5793 5790 5788 5785 5782 5780 5777 5774 5770 5767 5764 5761 5758 5754 5750 5747 5743 5740
5820 5820 5819 5819 5819 5818 5817 5817 5816 5815 5814 5812 5810 5813 5810 5808 5806 5805 5803 5802 5800 5798 5796 5795 5793 5791 5789 5786 5783 5781 5778 5776 5773 5769 5766 5763 5760 5757 5754 5750 5746 5742 5739 5735
5815 5815 5814 5815 5816 5814 5812 5811 5810 5809 5808 5807 5805 5808 5805 5803 5801 5800 5798 5797 5795 5794 5792 5790 5789 5787 5784 5782 5779 5776 5774 5772 5769 5766 5763 5760 5757 5754 5750 5747 5743 5739 5735 5732
5810 5809 5809 5809 5808 5807 5807 5806 5805 5803 5802 5800 5800 5800 5799 5798 5797 5795 5793 5792 5790 5789 5787 5786 5784 5783 5780 5778 5775 5772 5770 5767 5765 5762 5759 5757 5754 5751 5748 5744 5740 5736 5733 5729
5804 5804 5803 5803 5802 5800 5800 5800 5799 5797 5796 5794 5794 5793 5792 5792 5791 5789 5788 5787 5785 5784 5782 5781 5780 5778 5776 5773 5771 5768 5765 5763 5761 5759 5756 5753 5750 5748 5744 5741 5738 5734 5730 5727
5797 5796 5796 5796 5796 5794 5793 5792 5791 5790 5789 5788 5787 5787 5785 5785 5784 5783 5782 5781 5779 5778 5777 5776 5775 5773 5771 5769 5767 5764 5762 5760 5758 5756 5753 5750 5748 5745 5742 5739 5735 5732 5728 5725
5791 5789 5789 5789 5788 5787 5786 5786 5784 5783 5782 5781 5780 5780 5779 5779 5778 5777 5776 5775 5773 5772 5772 5771 5770 5768 5766 5764 5763 5761 5759 5756 5754 5752 5750 5748 5745 5742 5739 5736 5733 5729 5726 5723
5785 5783 5781 5781 5781 5780 5781 5778 5777 5775 5774 5773 5773 5772 5772 5773 5772 5771 5770 5769 5768 5767 5766 5765 5764 5763 5761 5759 5758 5757 5755 5753 5751 5749 5747 5744 5742 5739 5736 5733 5730 5727 5724 5721
5778 5777 5775 5774 5773 5773 5773 5771 5769 5768 5767 5766 5765 5765 5766 5766 5766 5766 5765 5764 5763 5762 5761 5760 5759 5758 5756 5755 5754 5752 5751 5749 5747 5745 5743 5741 5739 5737 5734 5731 5728 5725 5722 5719
5773 5771 5770 5768 5766 5766 5767 5765 5762 5762 5760 5759 5758 5758 5759 5759 5760 5760 5759 5758 5757 5756 5756 5755 5754 5753 5752 5751 5749 5748 5747 5746 5744 5742 5740 5739 5737 5734 5732 5729 5726 5723 5720 5717
5768 5766 5764 5763 5761 5760 5760 5758 5757 5756 5756 5754 5752 5752 5752 5753 5753 5754 5753 5753 5752 5752 5751 5750 5750 5749 5748 5746 5745 5745 5744 5742 5741 5739 5738 5736 5734 5732 5730 5727 5725 5722 5719 5716
5761 5759 5758 5757 5755 5757 5753 5751 5751 5749 5748 5747 5747 5746 5746 5747 5747 5748 5748 5747 5747 5747 5746 5746 5745 5745 5744 5742 5742 5741 5740 5738 5737 5736 5735 5734 5732 5730 5728 5726 5723 5720 5717 5714
5755 5754 5751 5751 5751 5749 5746 5744 5744 5742 5742 5741 5741 5741 5741 5741 5742 5742 5742 5742 5742 5742 5742 5742 5741 5741 5740 5739 5738 5737 5736 5735 5735 5734 5733 5731 5730 5728 5726 5724 5722 5719 5716 5713
5749 5747 5745 5744 5744 5742 5740 5738 5738 5737 5736 5736 5735 5735 5735 5736 5737 5737 5737 5737 5737 5738 5737 5737 5737 5737 5736 5735 5734 5734 5733 5732 5732 5731 5730 5729 5728 5726 5724 5722 5720 5718 5715 5712
5742 5740 5738 5738 5738 5737 5736 5733 5732 5732 5731 5730 5730 5729 5729 5730 5731 5732 5732 5732 5732 5733 5733 5733 5733 5732 5732 5732 5731 5730 5730 5729 5729 5729 5728 5727 5726 5724 5723 5721 5719 5716 5714 5711
5736 5734 5732 5732 5732 5730 5730 5728 5727 5726 5725 5725 5724 5725 5725 5725 5726 5726 5727 5727 5727 5728 5728 5729 5729 5729 5729 5729 5729 5728 5728 5727 5727 5726 5726 5725 5724 5723 5721 5720 5718 5715 5713 5710